World > North America > United States > Washington

Eldon, Washington Regional Weather

Lat: 47.55N, Lon: 123.04W
Wx Zone: WAZ511Web Search

Ads allow us to feed your daily addiction for the world's greatest weather information. We're determined to offer quality sponsors, in the least annoying way possible.

Feedback


°F Click to change Eldon hourly weather to Imperial units.Click to change Eldon hourly weather to Metric units. °C
Eldon Weather Map
UTC Time: 4/17/2021, 21:05
Your Time:

Eldon, WA Regional Weather

Expires:202104172100;;707056
ASUS46 KSEW 172020
RWRWA 

WASHINGTON REGIONAL WEATHER ROUNDUP
NATIONAL WEATHER SERVICE SEATTLE WA
100 PM PDT SAT APR 17 2021

NOTE:"FAIR" INDICATES FEW OR NO CLOUDS BELOW 12,000 FEET WITH NO 
SIGNIFICANT WEATHER AND/OR OBSTRUCTIONS TO VISIBILITY.


WAZ020-022-039-040-504-511-512-172100-
SOUTHWEST INTERIOR
  
CITY           SKY/WX    TMP DP  RH WIND       PRES   REMARKS
SHELTON        SUNNY     75  41  29 VRB3      30.18F                  
OLYMPIA        SUNNY     73  38  27 N6        30.21F                  
CHEHALIS       FAIR      75  45  33 VRB6      30.19F                  
KELSO          SUNNY     77  36  22 W3        30.18F                  
VANCOUVER      SUNNY     72  35  25 SW8       30.17F                  
SCAPPOOSE, OR  SUNNY     77  38  24 CALM      30.16F                  
PORTLAND, OR   SUNNY     74  36  25 NW6       30.17F                  
$$
 

SKY/WX - Weather  TMP - Temperature  DP - Dew Point  RH - Relative Humidity
WIND - Wind Direction/Speed PRES - Barometric Pressure VSB - Visibility
WCI - Wind Chill Index E13G22 Wind - East Wind 13 mph/Gusts of 22 mph